DW2182 Weather Reports


time (UTC)temp
C
wind
direction
speed
KPH
gust
KPH
rain 1hr
cm
rain 24hr
cm
rain mn
cm
humidity
%
barometer
mb
20260906183516 21 45 1.6 4.8 0.00 0.03 0.03 96 1017.4
20260906182516 21 90 6.4 12.9 0.00 0.03 0.03 96 1017.9
20260906181516 21 68 3.2 6.4 0.03 0.03 0.03 96 1018.1
20260906180516 22 0.0 3.2 0.03 0.03 0.03 96 1017.9
20260906175516 22 45 3.2 4.8 0.03 0.03 0.03 96 1018.1
20260906174517 22 0.0 4.8 0.03 0.03 0.03 96 1018.4
20260906173536 22 68 3.2 14.5 0.03 0.03 0.03 96 1017.8
20260906172516 22 68 6.4 16.1 0.03 0.03 0.03 96 1018.0
20260906171516 22 68 3.2 4.8 0.00 0.00 0.00 95 1017.7
20260906170515 22 68 3.2 9.7 0.00 0.00 0.00 95 1017.6
20260906165515 22 68 4.8 11.3 0.00 0.00 0.00 95 1018.0
20260906164516 22 45 4.8 9.7 0.00 0.00 0.00 94 1017.5
20260906163515 22 68 4.8 9.7 0.00 0.00 0.00 93 1017.4
20260906162516 22 68 3.2 8.0 0.00 0.00 0.00 94 1017.9
20260906161536 22 68 1.6 8.0 0.00 0.00 0.00 94 1017.8
20260906160536 22 90 3.2 6.4 0.00 0.00 0.00 94 1017.7
20260906155535 22 68 3.2 8.0 0.00 0.00 0.00 93 1017.7
20260906154556 22 45 3.2 6.4 0.00 0.00 0.00 93 1017.8
20260906153517 22 45 1.6 3.2 0.00 0.00 0.00 93 1017.7
20260906152536 22 45 3.2 8.0 0.00 0.00 0.00 93 1017.4
20260906151518 22 45 3.2 14.5 0.00 0.00 0.00 93 1017.1
20260906150518 22 68 3.2 8.0 0.00 0.00 0.00 92 1017.7
20260906145539 22 68 3.2 6.4 0.00 0.00 0.00 93 1017.6
20260906144518 22 45 3.2 4.8 0.00 0.00 0.00 93 1017.6
20260906143537 22 90 1.6 6.4 0.00 0.00 0.00 93 1017.6
20260906142518 22 90 3.2 12.9 0.00 0.00 0.00 93 1017.5
20260906141518 22 68 3.2 8.0 0.00 0.00 0.00 93 1017.6
20260906140517 22 45 3.2 8.0 0.00 0.00 0.00 93 1017.4
20260906135517 22 68 4.8 11.3 0.00 0.00 0.00 93 1017.4
20260906134537 22 68 6.4 14.5 0.00 0.00 0.00 92 1017.5
20260906133518 22 68 3.2 12.9 0.00 0.00 0.00 93 1017.3
20260906132518 22 68 4.8 11.3 0.00 0.00 0.00 93 1017.3
20260906131518 22 68 3.2 9.7 0.00 0.00 0.00 93 1017.2
20260906130518 21 68 3.2 14.5 0.00 0.00 0.00 94 1017.0
20260906125517 21 68 3.2 9.7 0.00 0.00 0.00 95 1017.0
20260906124517 21 45 1.6 4.8 0.00 0.00 0.00 95 1017.0
20260906123517 21 45 1.6 8.0 0.00 0.00 0.00 95 1017.0
20260906122518 21 0.0 0.0 0.00 0.00 0.00 96 1017.0
20260906121518 21 68 1.6 3.2 0.00 0.00 0.00 96 1017.0
20260906120517 21 68 1.6 4.8 0.00 0.00 0.00 96 1016.8
20260906115537 21 0.0 0.0 0.00 0.00 0.00 96 1016.7
20260906114517 21 0.0 1.6 0.00 0.00 0.00 96 1016.7
20260906113517 21 0.0 0.0 0.00 0.00 0.00 96 1016.8
20260906112518 21 0.0 0.0 0.00 0.00 0.00 96 1016.8
20260906111537 21 0.0 0.0 0.00 0.00 0.00 96 1016.8
20260906110538 21 0.0 0.0 0.00 0.00 0.00 96 1016.7
20260906105517 21 0.0 0.0 0.00 0.00 0.00 96 1016.6
20260906104517 21 0.0 0.0 0.00 0.00 0.00 96 1016.7
20260906103517 21 0.0 0.0 0.00 0.00 0.00 95 1016.7
20260906102517 21 0.0 0.0 0.00 0.00 0.00 95 1016.7
20260906101537 21 68 1.6 4.8 0.00 0.00 0.00 95 1016.9
20260906100537 21 68 1.6 6.4 0.00 0.00 0.00 95 1016.7
20260906095517 21 68 1.6 4.8 0.00 0.00 0.00 96 1016.4
20260906094517 21 68 3.2 6.4 0.00 0.00 0.00 96 1016.3
20260906093517 21 68 1.6 6.4 0.00 0.00 0.00 96 1016.3
20260906092517 21 68 1.6 8.0 0.00 0.00 0.00 96 1016.2
20260906091517 21 68 1.6 4.8 0.00 0.00 0.00 96 1016.2
20260906090517 21 0.0 0.0 0.00 0.00 0.00 96 1016.2
20260906085537 21 68 1.6 3.2 0.00 0.00 0.00 96 1016.1
20260906084517 21 0.0 3.2 0.00 0.00 0.00 96 1016.1
20260906083517 21 0.0 0.0 0.00 0.00 0.00 96 1016.1
20260906082517 21 0.0 3.2 0.00 0.00 0.00 96 1016.3
20260906081537 21 45 3.2 6.4 0.00 0.00 0.00 95 1016.3
20260906080537 22 68 1.6 8.0 0.00 0.00 0.00 95 1016.2
20260906075517 22 68 1.6 3.2 0.00 0.00 0.00 95 1016.0
20260906074517 22 68 1.6 6.4 0.00 0.00 0.00 95 1015.9
20260906073517 22 68 1.6 4.8 0.00 0.00 0.00 95 1016.1
20260906072517 22 68 1.6 4.8 0.00 0.00 0.00 95 1016.2
20260906071517 22 68 1.6 4.8 0.00 0.00 0.00 95 1016.2
20260906070517 22 68 1.6 9.7 0.00 0.00 0.00 95 1016.0
20260906065517 22 68 3.2 4.8 0.00 0.00 0.00 95 1015.9
20260906064517 22 45 3.2 8.0 0.00 0.00 0.00 95 1016.0
20260906063517 22 68 1.6 6.4 0.00 0.00 0.00 95 1016.2
20260906062557 22 68 1.6 3.2 0.00 0.00 0.00 95 1016.3
20260906061516 22 68 1.6 4.8 0.00 0.00 0.00 95 1016.5
20260906060517 22 0.0 0.0 0.00 0.00 0.00 95 1016.4
20260906055517 22 0.0 1.6 0.00 0.00 0.00 95 1016.4
20260906054517 22 68 1.6 3.2 0.00 0.00 0.00 95 1016.4
20260906053517 22 68 1.6 4.8 0.00 0.00 0.00 95 1016.3
20260906052517 22 68 1.6 3.2 0.00 0.00 0.00 95 1016.2
20260906051517 22 45 1.6 4.8 0.00 0.00 0.00 95 1016.2
20260906050516 22 23 1.6 4.8 0.00 0.00 0.00 95 1016.2
20260906045517 22 0.0 3.2 0.00 0.00 0.00 94 1016.1
20260906044537 22 0.0 3.2 0.00 0.00 0.00 94 1015.9
20260906043518 22 0.0 3.2 0.00 0.00 0.00 94 1015.8
20260906042518 22 68 1.6 3.2 0.00 0.00 0.00 94 1015.9
20260906041517 23 68 1.6 3.2 0.00 0.00 0.00 93 1015.8
20260906040517 23 0.0 3.2 0.00 0.00 0.00 93 1015.8
20260906035517 23 68 1.6 9.7 0.00 0.00 0.00 93 1015.7
20260906034517 23 68 1.6 4.8 0.00 0.00 0.00 92 1015.6
20260906033517 23 90 1.6 8.0 0.00 0.00 0.00 92 1015.6
20260906032537 23 45 3.2 4.8 0.00 0.00 0.00 92 1015.6
20260906031518 23 45 1.6 4.8 0.00 0.00 0.00 92 1015.8
20260906030517 23 68 3.2 8.0 0.00 0.00 0.00 91 1015.7
20260906025537 23 0.0 3.2 0.00 0.00 0.00 91 1015.8
20260906024537 24 0.0 1.6 0.00 0.00 0.00 91 1016.1
20260906023537 24 0.0 1.6 0.00 0.00 0.00 91 1016.2
20260906022517 24 45 1.6 3.2 0.00 0.00 0.00 91 1016.1
20260906021516 25 0.0 0.0 0.00 0.00 0.00 92 1015.9
20260906020557 25 0.0 0.0 0.00 0.00 0.00 91 1015.8
20260906015537 25 0.0 0.0 0.00 0.00 0.00 91 1015.7
20260906014517 25 0.0 0.0 0.00 0.00 0.00 91 1015.5
20260906013517 25 0.0 0.0 0.00 0.00 0.00 92 1015.3
20260906012517 25 0.0 0.0 0.00 0.00 0.00 92 1015.1
20260906011617 25 0.0 0.0 0.00 0.00 0.00 91 1015.0
20260906010516 25 0.0 0.0 0.00 0.00 0.00 91 1015.0
20260906005517 25 0.0 0.0 0.00 0.00 0.00 90 1014.9
20260906004517 26 0.0 0.0 0.00 0.00 0.00 90 1014.9
20260906003516 26 0.0 0.0 0.00 0.00 0.00 89 1015.0
20260906002516 26 0.0 0.0 0.00 0.00 0.00 89 1015.0
20260906001517 26 0.0 0.0 0.00 0.00 0.00 88 1014.9
20260906000517 26 0.0 1.6 0.00 0.00 0.00 88 1014.8
20260905235517 26 0.0 0.0 0.00 0.00 0.00 87 1014.7
20260905234516 27 0.0 1.6 0.00 0.00 0.00 87 1014.6
20260905233517 27 0.0 3.2 0.00 0.00 0.00 86 1014.6
20260905232516 27 68 1.6 4.8 0.00 0.00 0.00 85 1014.7
20260905231516 27 68 1.6 4.8 0.00 0.00 0.00 85 1014.7
20260905230517 27 68 3.2 9.7 0.00 0.00 0.00 84 1014.6
20260905225517 27 68 1.6 3.2 0.00 0.00 0.00 85 1014.7
20260905224516 27 45 1.6 4.8 0.00 0.00 0.00 85 1014.5
20260905223557 27 45 1.6 6.4 0.00 0.00 0.00 84 1014.4
20260905222517 27 68 3.2 9.7 0.00 0.00 0.00 83 1014.5
20260905221517 27 68 4.8 9.7 0.00 0.00 0.00 84 1014.5
20260905220517 27 68 3.2 8.0 0.00 0.00 0.00 84 1014.4
20260905215519 27 68 3.2 4.8 0.00 0.00 0.00 85 1014.4
20260905214536 27 68 3.2 11.3 0.00 0.00 0.00 83 1014.2
20260905213516 27 68 4.8 8.0 0.00 0.00 0.00 82 1014.0
20260905212516 27 68 4.8 11.3 0.00 0.00 0.00 82 1014.1
20260905211516 27 68 3.2 6.4 0.00 0.00 0.00 83 1014.1
20260905210516 27 68 3.2 6.4 0.00 0.00 0.00 84 1014.1
20260905205516 27 45 3.2 4.8 0.00 0.00 0.00 82 1014.3
20260905204537 27 45 3.2 6.4 0.00 0.00 0.00 81 1014.5
20260905203517 27 68 3.2 8.0 0.00 0.00 0.00 79 1014.5
20260905202516 27 45 1.6 4.8 0.00 0.00 0.00 81 1014.5
20260905201517 27 68 3.2 8.0 0.00 0.00 0.00 81 1014.5
20260905200517 27 45 3.2 6.4 0.00 0.00 0.00 82 1014.6
20260905195516 27 45 3.2 11.3 0.00 0.00 0.00 83 1014.6
20260905194516 27 45 3.2 9.7 0.00 0.00 0.00 82 1014.5
20260905193537 26 45 4.8 9.7 0.00 0.00 0.00 82 1014.3
20260905192516 27 45 6.4 14.5 0.00 0.00 0.00 82 1014.4
20260905191516 26 45 4.8 8.0 0.00 0.00 0.00 82 1014.6
20260905190516 26 45 4.8 9.7 0.00 0.00 0.00 83 1014.8
20260905185517 26 23 4.8 12.9 0.00 0.00 0.00 84 1014.7
20260905184537 26 45 3.2 11.3 0.00 0.00 0.00 85 1014.6